Terminal Aerodrome Forecast
Issued by NWS

Home | Current Version | Previous Version | Graphics & Text | Print | Product List | Glossary On
Versions: 1 2 3 4 5 6 7 8 9 10 11 12 13 14 15 16 17 18 19 20
000
FTUS43 KBIS 191000 AAA
TAFDIK
TAF AMD
KDIK 191007Z 1910/2006 VRB04KT P6SM SKC
     FM191600 19006KT P6SM FEW070=

USA.gov is the U.S. government's official web portal to all federal, state and local government web resources and services.